Wind_Speed
9 10 10 9 9 13 10 3 2 2 2 3 1 0 1 1 1 4 5 5 3 1 3 7 8 7 8 10 11 13 11 7 6 5 6 10 21 22 21 26 26 24 24 21 18 19 19 20 20 20 20 18 16 15 14 14 14 13 12 12 12 12 11 11 10 10 10 9 9 9 10 10 10 11 12 12 12 12 12 12 13 14 14 14 14 16 15 15 15 14 15 15 15 16 16 17 19
10 10 12 14 10 7 3 1 3 1 2 3 1 1 2 2 3 6 6 4 5 5 3 7 10 11 12 12 14 17 15 14 16 12 11 23 26 21 26 26 25 25 24 21 20 19 17 20 21 21 20 18 17 16 15 14 13 12 12 12 12 11 11 10 10 10 10 9 9 10 10 10 11 11 12 12 12 12 12 11 12 14 14 14 15 16 15 14 15 14 15 15 15 16 17 19 19
10 11 12 12 6 5 2 1 3 1 1 1 1 1 2 4 5 7 6 4 7 9 7 9 10 7 11 15 15 16 14 15 21 16 14 26 22 21 29 26 26 25 23 22 20 19 18 20 21 21 20 19 18 17 15 14 13 13 13 13 12 11 11 11 11 11 11 11 10 11 11 10 11 11 12 12 12 12 12 11 11 13 13 14 15 16 15 14 15 14 14 15 15 16 18 19 20
10 11 12 7 3 3 2 1 2 2 1 1 1 2 3 4 6 7 6 7 9 9 9 9 8 5 11 17 14 14 14 13 19 17 12 20 21 26 31 26 26 24 23 21 19 20 20 22 22 21 20 19 18 16 15 14 13 13 13 13 12 12 12 12 12 12 11 11 11 12 12 11 11 12 12 12 12 12 12 11 11 12 12 14 15 15 16 15 15 14 14 16 15 16 19 20 21
9 11 11 7 2 1 2 1 1 3 1 1 1 3 5 4 8 8 6 9 9 9 10 8 8 9 11 13 10 9 12 14 17 19 16 22 27 29 29 27 26 23 23 21 20 22 23 25 23 22 21 19 18 15 15 14 13 14 14 13 12 12 12 12 12 12 12 12 12 13 12 12 12 12 12 12 12 13 12 11 11 11 12 14 15 15 16 15 15 15 14 15 15 16 18 21 23
10 11 9 6 4 2 2 2 2 2 1 1 3 3 5 6 9 8 7 9 10 10 8 8 12 12 11 11 11 10 13 14 16 20 22 27 29 29 28 27 26 24 24 22 22 25 26 25 24 23 20 19 16 14 14 14 14 14 14 13 13 13 13 12 12 12 12 12 12 13 12 13 13 13 12 12 12 12 12 11 11 11 12 14 15 15 15 15 16 16 15 15 15 16 17 21 24
10 6 4 5 3 2 2 4 4 1 3 0 5 6 8 9 9 9 9 11 12 7 4 8 13 12 11 11 11 14 18 17 17 23 28 31 30 29 28 27 28 27 25 23 23 25 26 25 24 22 19 18 15 14 14 14 14 14 14 13 13 14 14 13 12 12 12 13 13 13 12 13 13 13 12 12 12 12 13 12 12 12 13 14 15 16 16 15 16 17 16 16 17 16 17 20 23
9 2 1 3 2 2 2 4 4 2 2 2 5 7 10 10 9 9 10 11 9 7 6 9 13 12 13 13 11 16 21 21 24 29 32 33 31 28 27 27 27 26 25 24 24 26 26 24 23 20 19 17 15 14 14 14 15 14 14 13 13 14 13 13 12 12 13 13 13 13 13 13 13 13 13 13 12 12 13 12 12 13 14 15 15 16 17 16 16 16 16 16 17 17 17 19 21
7 3 2 2 2 3 2 2 2 1 1 3 6 8 9 9 9 8 10 10 7 9 10 10 12 13 15 15 12 15 20 25 31 33 32 31 29 27 25 26 26 26 25 24 25 26 24 23 21 20 18 16 14 14 14 15 14 14 14 13 13 14 13 13 13 12 13 13 12 13 13 13 13 13 13 13 12 12 13 12 12 14 14 15 15 16 17 17 16 16 16 16 17 17 17 18 18
4 3 1 2 3 4 3 1 1 1 1 3 6 9 7 7 9 8 9 9 5 7 11 11 14 16 16 15 12 13 21 29 32 31 30 29 27 26 25 25 26 27 26 24 24 24 23 22 20 19 17 16 14 14 15 15 14 13 13 13 13 13 13 12 12 12 12 13 12 13 13 13 13 13 13 13 14 13 13 13 13 14 14 15 16 16 17 17 17 16 16 17 18 17 17 17 16
3 2 1 2 3 4 2 1 1 1 2 3 6 8 6 7 8 7 8 8 6 9 12 13 14 16 17 13 10 17 27 29 30 31 29 27 25 24 25 25 26 26 26 25 24 24 24 22 20 18 17 16 14 15 15 14 14 13 13 13 13 13 12 12 12 12 12 12 12 13 13 13 13 13 13 14 15 15 14 13 14 15 15 15 16 17 17 17 17 16 16 17 17 16 16 15 16
3 2 1 2 4 4 2 1 2 3 3 4 5 5 6 8 7 7 7 7 9 12 10 10 13 13 16 12 9 19 28 27 28 31 29 27 26 24 25 25 25 25 25 25 24 24 23 22 20 18 17 16 15 15 14 14 13 13 13 13 12 12 12 11 11 12 12 12 12 13 13 13 14 13 13 15 16 15 14 14 14 15 16 16 16 17 18 17 17 17 16 17 16 16 15 16 17
2 0 2 3 4 5 4 2 2 5 3 2 3 3 5 7 7 7 8 6 8 11 7 7 14 13 13 13 10 16 22 25 27 28 29 28 27 26 25 24 24 24 24 25 25 24 23 21 20 18 17 16 15 14 14 13 13 13 13 13 12 12 12 12 11 11 12 12 12 13 14 14 14 14 14 14 15 16 15 14 15 15 16 16 16 17 18 17 17 17 17 18 16 16 16 16 16
1 2 3 4 3 4 4 2 2 4 3 1 1 2 3 4 5 6 9 9 6 6 6 8 14 13 13 13 11 11 17 25 27 26 26 27 28 28 26 25 25 24 23 24 24 24 21 20 19 19 17 15 14 14 14 13 12 13 13 13 12 12 12 12 11 11 12 12 12 14 14 14 14 13 14 14 14 16 15 14 15 15 15 16 16 17 17 17 17 18 18 19 17 16 17 17 17
3 3 2 4 4 3 4 3 2 4 3 2 2 3 4 4 3 6 6 6 3 4 6 10 12 10 13 14 12 12 20 27 26 25 25 25 27 29 28 27 25 24 23 23 23 22 20 19 19 19 17 15 14 14 13 13 12 12 13 13 12 11 13 12 11 11 12 13 13 14 14 14 14 13 13 14 14 15 15 14 14 15 15 15 15 16 16 16 16 18 19 19 18 17 18 17 18
4 3 1 2 4 4 4 5 4 5 3 4 3 3 5 3 3 6 2 2 4 6 4 8 10 9 13 14 16 21 27 28 25 26 25 24 25 25 27 26 24 24 22 22 21 21 20 19 19 18 18 16 15 14 13 13 12 13 13 13 12 12 13 13 12 11 12 13 13 13 13 13 13 13 13 13 14 15 15 14 14 15 16 15 15 15 16 16 17 18 20 19 18 18 18 19 20
3 2 2 2 3 5 4 4 4 5 5 5 4 4 6 5 3 4 3 2 5 8 3 4 8 11 15 17 23 29 29 27 26 26 24 24 23 21 22 23 23 22 21 21 20 20 19 19 19 18 18 17 16 15 13 13 12 12 13 13 12 12 12 13 12 12 12 13 13 12 11 11 12 12 12 12 14 15 15 14 14 15 15 14 15 16 18 19 20 20 20 20 18 18 19 20 21
4 2 4 1 3 4 4 5 6 6 7 8 6 5 6 8 3 2 5 3 4 6 3 4 9 12 18 23 28 29 28 27 26 25 23 22 20 19 19 20 20 19 20 21 20 19 19 19 19 18 19 19 18 16 14 14 13 12 13 13 12 12 12 12 11 11 12 12 12 12 10 10 10 11 11 12 13 14 15 14 15 15 14 15 17 18 19 20 20 20 20 19 19 19 18 19 19
4 2 3 1 2 2 1 5 8 7 9 10 8 4 6 8 4 2 4 5 5 6 4 5 10 16 21 26 28 28 27 27 25 24 23 21 20 20 18 18 19 20 20 19 19 18 19 20 19 18 19 20 18 17 15 15 14 13 13 11 11 13 12 11 11 11 11 12 11 10 11 10 9 10 11 12 12 14 15 15 16 16 15 17 19 19 20 20 19 20 21 20 19 19 18 18 18
4 2 1 2 3 4 4 6 9 9 9 11 7 5 6 5 2 2 5 7 5 5 5 7 13 19 22 23 25 27 26 25 24 23 22 21 21 20 18 18 19 21 22 22 21 19 21 22 20 19 20 20 18 17 16 15 14 14 12 11 10 11 12 12 11 11 10 10 10 11 11 11 10 10 12 12 12 13 14 15 16 17 18 18 19 19 19 18 18 19 20 19 18 16 15 14 14
3 2 2 3 3 3 5 8 11 11 8 10 8 7 8 5 3 3 6 7 3 3 3 6 16 22 22 23 23 24 24 23 23 21 21 21 20 19 17 17 18 19 22 23 22 20 22 21 21 20 19 19 17 17 17 15 15 14 14 12 11 12 13 13 12 11 10 9 10 12 12 11 11 12 13 12 13 14 14 14 15 17 17 15 15 16 16 16 16 16 16 16 15 15 12 9 9
3 1 4 4 1 2 8 10 13 13 8 9 9 8 8 6 5 3 5 5 1 5 5 9 16 22 21 22 22 21 21 20 20 20 19 20 20 19 17 16 16 18 18 20 20 20 20 19 20 20 19 18 16 17 17 16 15 15 15 13 13 14 13 13 11 9 9 10 10 11 13 11 12 13 13 14 15 15 13 11 12 13 13 13 13 13 14 13 11 11 11 11 11 11 11 9 9
2 3 6 6 4 3 12 13 13 15 10 9 8 7 6 6 6 2 2 4 2 6 8 12 16 20 22 22 20 20 19 18 19 19 19 20 20 19 19 17 16 17 17 17 18 19 19 18 19 19 19 18 16 16 16 16 15 14 14 13 15 15 13 13 12 11 9 9 11 12 13 12 12 13 13 14 14 12 10 10 11 11 12 13 13 13 12 10 8 8 8 6 6 7 8 9 10
6 3 5 4 6 6 12 16 13 16 12 9 8 8 7 6 6 1 1 3 4 3 5 11 18 19 21 20 19 19 18 18 19 20 20 19 20 20 18 18 17 16 17 18 18 18 19 18 18 19 18 18 17 16 16 16 14 13 13 12 14 14 12 12 13 13 9 8 10 11 12 10 11 12 13 13 12 11 10 10 10 10 11 11 11 12 10 9 8 7 4 4 6 8 9 9 9
8 7 4 2 6 7 10 17 16 16 12 11 10 9 7 6 6 3 2 3 4 3 4 10 17 19 19 18 19 18 17 18 19 20 19 18 20 21 18 18 18 17 18 18 18 17 18 18 18 19 18 18 17 16 15 15 14 15 13 12 14 12 12 13 13 12 9 10 11 12 13 10 10 11 11 12 11 10 10 11 11 11 12 11 11 11 9 9 9 7 4 4 8 10 10 9 10
6 7 5 3 8 9 6 15 17 15 11 11 12 10 6 6 6 4 2 2 3 1 5 12 15 18 18 17 18 17 16 17 18 19 19 18 20 21 20 19 18 17 17 18 18 17 18 18 18 18 18 18 18 15 14 13 13 14 11 10 12 11 13 14 13 10 9 8 8 12 13 10 12 13 12 13 11 10 12 11 11 11 12 11 12 10 9 10 10 8 8 8 9 10 9 9 9
4 6 6 7 9 9 3 12 17 15 12 13 13 10 9 9 6 3 4 5 2 3 7 15 15 17 18 17 17 16 16 17 19 20 18 19 19 20 20 19 18 18 17 17 18 18 18 18 17 18 17 18 20 17 16 16 13 13 12 11 10 9 12 14 12 11 12 9 9 12 11 11 14 15 14 14 13 13 13 12 12 11 10 11 12 11 10 9 9 8 9 8 8 9 8 9 9
5 6 7 10 10 9 6 10 16 15 9 10 13 9 9 8 4 4 7 6 3 6 11 17 15 15 16 17 17 13 15 18 20 19 17 18 18 19 19 19 19 19 18 17 18 19 19 19 18 18 17 17 19 18 19 19 16 16 16 14 12 12 14 17 15 15 16 16 16 14 12 16 19 18 13 12 13 13 13 14 13 11 10 11 13 12 10 8 7 8 9 8 7 7 7 8 9
8 8 6 9 9 9 8 7 16 17 9 9 13 8 5 5 4 7 9 5 3 6 12 17 15 15 15 16 16 12 14 17 18 17 17 17 17 18 19 19 20 19 18 18 18 19 19 19 18 18 17 16 16 16 17 18 16 16 16 15 16 15 15 18 17 16 15 16 18 15 14 17 22 23 17 13 13 12 11 13 12 8 8 11 13 12 9 7 5 7 8 7 7 7 7 7 7
9 8 6 7 6 7 7 9 17 16 13 14 11 4 4 6 4 8 8 6 4 5 12 16 13 14 14 14 14 13 14 15 16 17 17 17 16 17 18 19 20 18 18 18 18 19 19 18 18 17 17 16 15 16 16 16 15 14 14 14 15 15 14 15 15 15 14 14 15 14 14 14 18 22 19 19 18 15 13 13 12 10 6 10 11 9 7 8 6 6 7 7 7 7 7 8 8
8 9 7 6 5 5 7 12 16 13 10 15 9 2 4 5 5 8 8 8 7 5 8 14 14 14 13 14 13 13 14 14 16 18 18 18 17 17 17 19 20 18 18 18 18 19 18 17 17 17 17 16 15 16 15 16 15 14 14 14 13 14 14 14 13 14 14 13 13 13 13 12 13 14 15 19 20 19 19 16 15 14 10 9 8 7 6 7 7 5 6 7 7 7 7 8 8
7 8 7 7 6 4 6 8 14 14 10 13 8 2 1 4 8 11 10 10 10 6 4 7 13 15 14 14 14 13 13 15 17 19 19 18 17 17 17 18 19 18 18 18 18 19 18 16 16 17 17 16 16 15 15 15 15 14 14 13 13 13 14 14 14 14 14 13 13 12 12 12 12 11 11 15 17 17 18 17 14 13 13 10 8 8 6 6 5 4 6 6 7 9 8 9 8
7 7 7 7 7 5 5 7 11 17 12 10 8 4 2 3 9 11 10 10 9 6 3 4 6 11 15 14 12 13 13 14 16 18 21 19 18 18 17 18 18 18 18 18 18 18 18 16 16 17 17 16 16 15 15 15 14 14 14 13 12 12 13 14 14 14 14 14 13 13 12 12 12 11 10 13 15 14 15 16 13 12 13 10 8 8 6 6 6 5 5 5 5 7 7 9 9
7 8 8 8 8 7 5 4 7 13 12 9 8 7 6 7 9 9 9 8 7 4 4 3 4 7 12 14 12 13 13 13 13 17 21 19 18 19 18 18 18 18 19 19 18 18 18 17 16 18 17 16 16 16 16 15 15 14 14 13 11 12 12 13 14 14 14 13 13 13 13 12 12 12 10 10 12 12 14 14 11 10 11 10 9 8 6 7 7 6 5 4 4 3 4 8 9
9 9 8 8 8 10 8 7 4 8 11 9 8 7 9 10 10 9 7 7 7 5 4 5 6 9 10 13 14 13 14 14 13 17 22 20 19 20 18 18 18 18 19 20 18 17 18 17 16 18 17 16 15 16 16 15 15 14 13 13 11 11 12 12 13 14 14 13 13 13 12 12 12 12 10 9 10 12 12 12 10 9 8 8 8 8 7 7 7 6 5 3 4 5 5 7 7
11 10 10 8 8 9 9 11 11 12 10 8 8 6 10 12 10 9 8 7 7 7 5 4 5 8 7 8 11 14 14 14 15 19 22 20 20 20 19 18 18 18 19 20 19 17 18 17 17 18 17 17 16 16 16 14 14 13 13 13 11 11 12 12 12 13 14 13 13 13 12 12 12 12 10 9 11 11 11 10 10 10 7 7 8 9 8 7 7 6 5 4 4 4 4 6 5
15 12 10 9 9 7 6 9 11 13 9 7 8 6 9 13 12 11 11 9 8 9 8 7 7 7 5 4 8 15 15 14 17 21 21 21 21 21 20 19 18 18 20 21 20 18 18 17 18 19 17 17 16 16 15 14 14 14 14 13 12 12 12 12 11 12 13 12 13 12 12 12 12 12 10 9 10 11 10 9 9 10 9 7 7 8 8 7 7 6 6 5 4 3 3 5 6
17 14 10 9 9 6 9 9 8 10 8 6 8 7 8 11 13 13 12 12 11 11 11 12 11 7 4 5 8 12 14 14 17 19 21 22 21 22 21 19 19 19 20 21 20 19 19 18 19 19 18 18 16 15 15 14 14 13 13 13 12 12 12 11 11 13 14 13 13 12 11 12 11 12 11 10 10 9 9 9 8 9 9 8 8 7 7 7 6 6 5 5 4 3 2 5 7
14 12 9 9 8 5 10 11 9 8 6 6 10 9 8 11 13 14 14 12 11 12 12 10 9 5 2 6 9 9 14 15 16 17 20 22 22 23 22 20 20 20 20 21 20 19 19 19 20 19 19 18 16 16 15 14 14 13 12 12 12 12 11 11 11 13 14 13 13 12 11 12 11 11 10 10 10 9 9 9 9 8 9 9 8 8 7 6 6 6 5 5 5 3 3 5 4
11 9 7 8 8 6 7 10 12 9 5 9 12 8 8 12 12 13 14 12 10 11 9 6 6 7 7 8 10 9 12 14 16 17 18 21 23 23 22 21 21 20 21 21 21 20 19 20 21 20 19 19 17 17 16 14 14 12 11 11 11 11 11 11 12 13 13 12 12 11 11 12 11 10 10 10 10 8 8 9 9 9 8 8 8 8 7 6 6 5 6 5 3 3 4 5 4
11 11 10 9 7 6 5 5 9 9 8 12 12 6 6 11 12 12 12 11 10 10 8 5 5 7 7 8 9 10 11 13 15 17 17 19 21 22 22 22 21 21 21 21 22 21 19 20 21 20 19 19 18 18 17 15 15 12 10 11 12 12 11 13 13 12 12 12 12 12 11 12 12 11 10 10 10 9 8 8 9 9 8 7 7 7 5 6 6 5 6 5 3 4 4 5 5
10 12 14 13 7 9 10 6 4 6 8 11 12 5 4 10 12 13 12 12 13 12 10 7 6 7 7 8 10 12 12 11 13 16 17 18 20 22 22 23 22 22 21 22 22 21 19 20 21 20 19 18 18 19 18 16 16 14 12 13 15 13 12 13 13 13 14 13 12 12 12 12 11 11 11 10 10 10 8 8 9 8 8 7 6 6 5 5 6 6 5 5 5 5 4 4 4
8 10 14 16 12 9 13 10 6 6 5 10 12 6 4 8 9 13 15 15 15 12 12 11 8 8 9 10 11 12 12 11 10 14 17 18 20 21 22 23 23 22 22 22 22 22 21 21 22 20 20 19 18 20 19 17 17 15 13 14 15 14 12 13 13 13 15 13 12 13 13 12 11 11 11 10 9 10 8 8 8 7 7 6 5 6 5 5 6 6 5 5 7 5 4 3 4
7 9 13 16 16 10 9 8 7 7 7 8 13 9 4 6 9 14 15 15 16 13 13 13 11 11 13 13 11 9 11 13 11 11 16 18 19 21 22 23 24 23 23 23 23 23 23 24 24 21 21 20 18 20 20 18 18 17 14 14 13 13 12 13 12 13 13 13 14 15 13 12 11 11 12 11 10 10 9 8 8 7 7 7 5 4 4 5 7 7 4 4 5 4 4 2 3
9 11 12 15 16 12 9 8 8 9 9 6 10 10 5 6 9 11 11 13 16 15 15 15 14 13 13 12 8 4 7 11 13 14 16 18 19 22 23 22 23 24 24 23 23 23 24 25 25 22 22 20 19 21 21 18 19 18 16 14 13 12 11 12 12 11 12 12 13 14 14 13 12 11 12 12 11 10 9 9 8 6 6 7 5 5 5 5 6 6 5 4 4 4 4 2 2
11 14 14 13 14 12 8 7 6 8 8 5 9 12 6 5 7 8 9 11 12 12 12 13 14 14 13 10 8 6 8 10 11 12 13 17 20 22 23 23 23 23 24 24 23 24 24 25 26 24 22 21 21 22 22 19 18 18 17 16 14 13 12 12 12 11 12 12 13 14 14 15 13 11 12 12 11 11 9 9 9 7 7 7 6 7 8 5 5 6 5 5 4 4 4 3 1
11 12 10 10 9 9 8 7 6 6 7 8 11 12 8 6 7 7 7 9 10 11 10 9 11 13 13 12 11 11 11 9 9 9 11 15 19 20 21 22 23 23 24 24 23 24 24 24 26 25 23 23 22 23 23 20 19 19 18 17 15 15 13 13 13 12 12 12 13 13 14 15 13 12 13 12 12 11 10 9 9 9 8 7 6 7 7 5 6 6 5 5 4 4 4 4 3
11 10 7 6 4 5 6 6 6 7 7 9 13 13 10 5 6 9 9 10 10 10 11 11 11 12 12 12 13 11 10 9 8 6 8 11 14 18 20 21 22 22 23 24 23 24 25 25 26 26 25 24 23 24 24 21 20 19 19 18 17 16 14 14 14 13 13 13 13 13 13 14 13 13 13 13 12 12 11 11 10 10 9 8 7 6 7 7 6 6 6 5 5 4 4 3 4
10 9 8 7 6 4 5 6 8 8 8 10 13 14 8 2 7 12 12 12 11 8 8 9 11 12 12 11 12 11 10 9 6 4 6 8 10 15 19 20 20 19 21 24 23 23 25 25 26 26 25 25 24 24 24 23 22 21 20 19 18 17 16 14 15 14 14 13 13 13 13 13 14 14 14 13 12 13 13 12 11 11 10 10 10 8 8 9 7 7 7 6 6 6 4 4 4
9 9 7 8 7 7 8 8 8 8 9 11 14 13 7 7 8 11 11 11 11 9 7 7 8 11 10 8 9 10 11 11 8 6 7 8 10 14 17 18 19 19 18 22 24 24 25 25 26 27 26 26 25 24 25 25 24 22 21 20 19 19 18 16 16 15 14 14 13 13 13 13 13 14 14 13 13 13 14 13 12 12 11 10 10 9 9 8 7 8 7 6 6 6 5 5 5
10 9 9 9 8 7 8 8 7 8 9 11 13 9 7 8 7 10 13 11 10 9 9 9 7 7 7 6 7 9 10 9 10 10 10 10 12 15 16 17 19 18 16 20 23 23 24 25 26 27 26 26 26 25 25 25 25 24 23 22 21 20 19 18 17 16 15 15 14 14 14 14 13 13 13 13 13 13 14 14 12 12 12 11 10 10 10 9 8 8 7 6 7 7 5 5 5
9 9 10 9 9 8 7 7 9 9 8 9 9 2 7 9 8 10 13 13 12 10 10 12 11 8 6 5 5 7 7 6 7 9 11 12 13 13 15 15 17 17 16 18 19 19 22 25 27 27 26 26 26 25 25 24 25 24 24 23 22 21 20 19 18 18 17 16 15 15 15 14 13 14 14 13 13 14 14 14 14 12 12 12 11 11 10 10 9 8 7 7 7 6 5 5 6
6 10 10 8 9 10 7 7 9 9 9 8 6 8 8 10 9 8 11 13 13 11 11 13 14 11 7 3 3 4 4 4 3 2 4 7 10 12 14 16 16 16 17 18 15 15 17 21 26 27 26 26 25 25 25 25 24 25 25 25 24 22 21 20 19 19 18 17 17 16 15 14 14 14 15 14 14 15 15 14 14 13 13 12 12 12 11 11 11 10 9 8 7 6 5 7 6
5 8 10 8 10 10 7 6 7 9 9 8 10 14 10 8 7 8 11 12 11 12 11 11 13 13 10 5 4 5 5 4 2 1 1 3 7 12 14 16 17 17 18 16 14 16 16 18 24 27 26 26 26 25 25 25 24 24 24 26 25 24 23 21 20 20 20 18 18 18 16 15 15 15 14 15 15 16 15 15 15 14 14 14 13 13 13 12 11 11 11 9 8 8 7 8 7
9 6 6 7 9 9 7 6 6 7 9 8 12 17 11 7 8 10 12 11 11 12 11 11 11 11 10 8 7 8 6 4 2 1 3 5 7 9 10 12 14 15 13 9 10 16 16 15 19 22 25 25 24 25 24 24 24 23 23 25 25 24 24 23 21 21 21 20 19 19 18 17 17 16 14 15 16 17 16 16 16 15 15 15 15 14 14 13 11 10 11 10 10 10 10 10 8
11 7 4 6 7 7 8 6 5 6 7 9 11 12 7 6 8 10 13 11 11 12 11 11 11 10 9 9 10 9 5 3 3 1 3 6 7 6 7 9 9 9 10 9 10 12 12 12 14 18 23 24 24 25 24 23 24 22 21 23 25 25 24 23 23 23 22 22 21 21 19 18 18 17 16 15 16 17 17 17 16 16 16 16 16 15 14 15 13 11 12 12 12 12 13 12 10
10 7 6 8 7 7 9 8 7 6 6 8 7 6 5 6 7 9 13 12 11 12 11 11 12 11 10 10 10 9 7 5 4 3 1 3 5 6 6 6 8 9 8 13 13 12 14 18 20 17 15 18 23 25 24 23 24 23 22 22 23 24 25 23 23 23 23 23 22 22 21 20 19 18 18 18 17 17 18 18 17 17 17 17 17 17 15 16 16 14 14 13 12 13 14 13 11
10 9 8 8 9 9 8 7 8 8 7 7 4 7 5 5 6 7 11 12 12 12 11 11 12 14 12 9 10 10 9 8 6 6 7 5 1 5 4 6 10 10 9 9 12 17 21 22 22 17 12 16 21 22 21 19 18 18 20 22 23 23 23 24 23 23 24 24 23 23 23 21 21 20 20 19 19 18 18 18 18 18 18 18 18 18 16 16 17 16 15 13 12 13 13 12 12
Wind_Direction
153 155 166 182 205 227 225 213 245 225 229 255 240 220 212 151 156 165 142 119 123 151 62 77 88 80 84 82 81 65 46 69 85 106 109 131 143 149 144 135 135 134 133 132 132 134 136 138 136 135 133 131 128 124 119 113 107 104 102 102 103 104 105 105 101 97 96 96 95 94 90 86 86 86 86 86 86 86 88 94 97 96 97 98 101 103 102 104 105 105 105 102 97 97 99 99 99
174 182 195 204 215 231 223 213 245 188 212 252 171 187 197 176 196 158 140 132 121 129 103 87 85 78 85 84 81 72 56 63 83 89 106 132 139 144 141 137 136 133 131 130 131 131 133 137 135 133 130 128 126 123 117 112 111 110 109 108 108 108 106 103 99 98 97 96 95 94 92 92 91 89 89 87 89 92 91 92 98 98 100 98 98 104 105 106 108 105 105 103 99 100 100 100 102
212 224 222 204 214 247 222 248 251 195 217 243 134 189 192 194 179 140 146 147 129 137 126 93 76 61 82 80 75 81 80 76 93 101 117 134 137 144 142 136 134 130 129 129 130 131 133 135 132 129 128 127 124 120 117 117 118 116 113 109 107 106 102 99 97 98 97 94 92 94 94 93 92 89 90 91 93 95 95 93 96 99 103 101 98 104 107 106 107 106 105 105 104 103 100 101 104
228 254 253 214 203 252 238 228 251 275 233 167 152 185 211 206 143 131 154 148 141 131 106 93 76 52 82 89 89 90 95 89 102 112 124 133 135 141 140 135 134 130 130 129 130 133 135 134 131 128 129 129 123 120 121 122 122 117 111 107 107 104 99 97 96 96 95 93 91 93 93 91 90 88 90 93 95 94 94 95 97 100 101 100 101 104 105 104 106 107 107 108 107 103 102 102 103
232 257 257 245 248 218 254 239 225 250 234 124 165 193 206 184 132 139 162 150 138 112 104 109 93 86 86 89 98 99 107 106 111 118 124 131 134 138 138 136 134 131 130 128 130 133 133 132 130 131 132 128 122 123 125 123 120 114 110 108 106 103 97 95 95 96 96 94 91 91 92 91 89 88 88 90 94 94 93 93 96 101 101 101 103 104 104 107 109 108 108 109 107 102 102 104 104
233 250 232 233 250 214 253 262 250 245 28 94 152 185 180 150 136 146 161 142 111 97 110 107 97 95 86 83 96 108 118 117 119 123 129 135 136 137 137 136 133 130 128 127 130 132 131 131 131 132 130 124 124 128 124 118 116 113 111 107 103 100 97 97 97 98 98 95 94 94 94 93 91 90 90 90 92 93 94 95 97 100 102 103 103 104 105 109 111 111 110 109 105 103 104 106 107
228 252 226 224 240 249 272 279 286 354 2 274 142 154 148 135 138 144 152 133 103 100 121 96 100 99 89 93 97 104 114 118 122 127 131 136 138 138 138 136 133 130 127 127 129 131 130 130 130 128 125 124 128 127 119 115 113 111 109 105 103 102 99 100 100 102 103 100 98 98 99 97 95 94 93 93 92 93 95 96 99 100 102 105 106 108 109 110 112 112 112 111 107 106 105 105 107
232 251 212 242 251 259 266 275 297 12 294 215 129 134 132 136 145 144 143 125 114 124 116 96 102 101 96 100 96 105 114 117 122 126 130 133 136 138 138 135 132 129 127 128 130 131 130 129 127 124 127 129 129 122 114 114 113 111 108 105 104 103 103 103 104 107 107 104 103 101 100 99 98 97 96 95 94 95 97 98 100 100 101 103 106 108 109 109 109 110 111 113 111 107 103 103 105
234 237 173 247 269 258 256 260 288 30 219 147 124 129 129 145 141 138 131 110 125 132 119 113 107 104 103 102 98 107 116 120 123 125 128 131 135 136 136 135 132 131 129 129 131 131 129 128 126 126 130 129 125 119 116 116 113 111 107 105 104 104 106 107 109 108 107 106 104 103 102 100 100 99 99 97 96 96 97 99 101 101 101 102 104 105 107 108 107 108 111 114 110 105 103 102 101
231 239 221 277 278 264 279 264 208 96 179 135 125 133 135 144 136 141 128 114 146 122 112 114 105 107 108 105 102 110 121 126 125 125 130 133 136 136 135 135 134 133 131 131 132 131 130 129 127 128 129 126 123 120 119 117 114 113 109 107 106 106 109 111 112 110 110 108 106 105 102 102 100 99 101 100 98 98 98 98 99 101 101 103 106 105 105 107 109 109 110 111 108 104 103 102 101
250 261 262 295 284 277 344 353 256 146 150 125 122 134 141 138 135 139 115 120 148 111 113 118 110 112 108 103 106 119 127 130 129 127 131 134 135 135 133 134 135 134 133 133 133 132 132 131 130 129 128 125 123 122 120 117 117 116 112 110 108 110 111 112 114 114 112 109 109 107 105 105 102 99 100 101 99 99 98 98 99 101 102 104 107 106 105 107 111 112 110 110 109 105 103 106 107
265 318 299 284 298 311 357 300 225 152 128 128 129 127 138 136 137 144 117 119 131 118 124 122 117 117 109 109 115 128 132 133 133 131 134 136 134 132 132 134 135 134 133 134 133 134 134 134 133 131 130 126 124 122 119 117 118 118 116 113 112 113 113 116 116 115 113 111 112 111 110 107 101 99 100 102 103 101 99 100 102 103 105 107 108 107 107 109 112 115 116 117 114 112 110 111 112
249 256 277 280 305 323 323 289 162 136 122 120 125 127 139 136 144 147 126 125 119 114 130 128 124 120 111 116 126 135 136 134 133 134 136 136 132 131 133 134 134 133 134 134 134 135 136 136 134 133 132 127 125 123 120 120 121 123 121 118 118 118 118 120 118 117 116 114 114 114 112 106 99 98 98 100 103 102 101 101 103 104 107 108 109 109 110 113 116 119 123 122 117 117 116 114 113
211 232 273 297 299 306 312 314 138 127 113 82 136 166 129 111 149 141 122 131 117 112 152 152 129 118 117 125 134 141 137 136 136 136 136 133 132 134 136 135 134 135 135 135 134 136 137 136 136 136 132 127 128 127 125 127 127 126 124 122 121 122 123 121 120 120 120 117 115 114 112 107 103 98 100 102 102 103 103 103 104 105 108 109 110 111 113 114 118 123 126 124 119 118 118 116 112
228 268 293 307 314 319 330 356 92 104 103 140 146 128 82 41 116 113 107 125 128 154 161 148 134 126 137 141 142 146 140 140 139 135 134 131 133 137 139 138 137 136 136 135 135 136 136 135 136 135 133 131 131 131 133 137 134 127 126 126 125 126 126 124 123 122 122 119 113 114 113 109 107 103 102 103 101 103 104 104 107 110 110 111 112 113 114 114 118 121 122 121 120 120 117 114 112
242 301 334 295 319 338 347 5 63 89 118 146 130 112 102 52 44 84 113 229 154 155 167 145 137 137 146 144 141 143 142 141 139 135 134 133 134 136 137 137 137 136 136 137 136 136 136 136 137 137 137 136 132 133 136 137 134 129 127 127 129 129 126 126 126 126 125 121 117 117 115 112 110 106 101 102 104 105 107 108 111 113 112 113 115 115 114 116 119 120 120 120 120 119 116 113 113
248 278 275 267 322 345 4 15 59 107 140 137 133 158 138 102 44 79 124 229 139 142 183 153 137 141 140 138 140 141 141 141 139 137 136 135 134 135 134 134 136 135 134 134 135 136 138 138 139 139 139 138 135 134 135 133 133 132 129 130 131 130 129 130 128 128 127 125 125 121 118 117 113 111 106 105 106 106 107 109 109 111 111 113 114 115 115 118 122 122 122 121 120 119 116 114 114
236 260 269 273 11 359 10 49 90 129 137 130 140 167 140 112 112 112 106 85 116 143 163 153 148 141 131 135 141 141 142 143 141 140 139 138 138 140 138 136 136 131 129 133 137 140 140 141 140 140 140 139 136 135 136 134 133 131 130 134 135 133 134 133 131 131 132 132 130 126 125 122 117 118 116 112 111 110 109 108 107 108 111 112 111 112 114 117 120 121 121 121 120 118 117 117 115
235 294 311 331 54 60 68 84 107 129 127 127 137 143 110 106 111 131 142 120 123 146 154 177 154 133 130 138 143 142 145 145 144 144 143 144 144 145 143 140 140 133 133 138 141 143 143 143 142 143 143 141 139 138 138 136 137 136 133 137 135 135 138 138 138 138 140 136 132 136 132 126 126 124 121 121 118 115 112 108 106 107 109 110 111 112 114 117 118 119 119 120 118 116 117 117 116
258 272 305 338 45 74 102 100 108 123 127 126 130 125 103 105 94 88 143 126 128 163 163 175 150 135 139 143 145 146 147 146 146 148 148 148 146 147 148 146 145 141 143 146 145 145 144 144 144 145 146 144 142 140 139 139 142 141 141 143 140 143 145 144 146 147 150 143 142 145 133 127 134 133 132 131 124 118 115 113 111 111 112 114 116 118 119 120 122 124 124 124 122 120 123 119 117
262 252 283 329 37 74 122 121 118 126 132 127 131 132 120 118 103 103 141 124 129 175 186 189 149 142 146 144 148 149 149 148 149 153 151 149 147 148 150 149 147 144 144 146 148 146 145 145 144 147 149 145 142 142 143 144 147 147 149 149 149 154 148 145 151 157 161 159 150 140 135 137 138 140 138 129 121 120 119 116 115 116 117 120 123 124 126 127 130 133 133 134 131 133 142 140 129
246 268 285 293 15 138 144 138 129 128 129 128 135 132 125 129 111 109 152 139 172 148 189 216 157 144 148 146 149 150 151 151 152 155 152 152 151 148 149 148 145 142 141 142 145 147 147 146 143 146 148 145 144 146 147 150 152 150 152 151 152 156 151 150 156 161 168 169 157 139 143 145 136 139 137 127 124 122 123 125 127 128 127 128 128 128 131 134 137 146 149 146 144 151 162 162 148
226 301 272 251 252 217 144 144 137 130 137 135 133 121 114 129 118 87 154 150 174 142 183 196 155 144 148 146 150 153 154 154 155 156 156 157 152 148 149 148 145 143 142 141 142 146 148 147 143 144 148 146 144 146 148 153 154 148 150 151 152 155 155 157 156 159 167 167 156 144 144 144 140 142 136 133 131 130 132 132 132 136 136 134 132 133 138 142 148 164 178 184 187 181 167 154 146
191 217 256 242 248 241 138 142 142 131 138 132 124 121 121 136 127 125 211 163 160 147 208 174 146 146 149 148 154 154 154 156 158 157 159 159 152 149 149 146 147 147 145 144 145 149 149 148 144 144 149 146 143 147 147 151 154 148 147 149 151 153 155 156 152 152 153 160 167 157 147 151 158 151 143 145 145 145 143 131 126 127 132 135 138 141 143 146 152 157 181 209 183 159 145 136 133
219 209 231 284 271 258 137 139 139 130 132 129 130 131 136 145 130 143 190 174 166 157 206 164 147 150 151 154 155 154 159 158 156 159 161 161 153 149 150 148 150 150 147 147 149 150 148 147 145 144 148 147 145 148 145 146 153 150 149 153 154 154 156 154 150 149 147 155 172 167 148 149 163 155 146 148 145 138 131 127 126 125 130 129 132 137 133 135 138 130 109 132 147 141 137 136 135
238 235 228 252 273 266 163 137 135 129 133 137 136 136 147 154 134 135 191 213 196 179 184 169 158 155 154 158 157 156 161 158 158 163 162 160 155 151 152 151 151 151 150 150 151 150 147 148 148 146 148 148 145 146 148 149 150 147 148 148 146 150 153 150 143 150 163 149 144 155 150 147 156 152 142 139 133 126 121 121 119 118 120 116 116 118 118 120 121 116 104 118 136 132 133 141 140
212 241 234 232 256 262 198 125 130 128 131 139 136 138 151 168 171 145 189 211 225 273 196 171 162 159 159 159 156 158 161 162 165 164 162 161 158 155 154 152 151 152 155 154 150 150 150 150 149 148 148 148 146 147 151 152 148 147 147 136 134 143 144 142 138 149 164 150 124 141 152 155 153 143 137 139 138 138 133 124 122 124 122 117 112 112 113 108 106 108 109 123 132 126 138 149 142
207 225 232 236 243 243 210 136 134 126 124 142 134 133 147 167 200 152 169 187 214 242 186 165 163 162 163 158 154 161 164 166 167 163 163 163 161 159 154 153 153 154 158 155 149 151 153 151 150 149 150 149 147 147 149 149 149 153 153 145 147 154 149 153 158 155 157 154 149 148 152 161 158 144 135 135 131 135 135 121 123 139 144 136 124 117 114 105 104 106 111 128 133 132 147 149 144
222 220 234 239 238 235 221 138 123 120 132 157 134 124 153 184 188 147 156 167 212 223 174 164 166 161 166 159 153 167 169 166 166 163 163 160 160 158 154 155 154 154 158 152 151 154 153 151 149 149 151 151 147 145 146 146 146 150 151 148 151 155 155 156 156 152 148 147 149 146 143 151 151 142 137 137 125 121 126 112 115 139 132 121 114 110 119 125 122 107 115 130 134 148 155 145 145
231 222 232 244 241 229 205 123 112 118 138 160 153 138 181 203 185 149 151 154 196 220 173 171 166 162 169 158 157 173 168 163 164 162 161 158 160 160 157 156 153 155 155 151 157 156 151 151 150 150 151 150 146 143 144 143 143 145 145 145 149 151 149 146 142 142 141 137 135 130 129 133 137 135 136 147 143 132 133 122 131 152 123 101 102 104 121 129 122 108 120 134 140 153 155 153 153
239 227 221 228 240 209 167 129 122 122 145 161 170 233 168 177 181 168 164 157 180 215 184 176 167 167 169 158 165 173 163 165 167 162 158 160 164 163 161 156 153 155 152 154 160 153 150 153 151 151 151 150 146 144 145 143 143 144 142 147 153 151 145 143 141 142 140 135 131 126 128 129 132 130 128 144 148 144 145 140 143 153 142 127 126 131 126 116 110 103 120 132 144 145 138 149 148
228 231 225 211 220 188 144 150 140 131 157 170 169 242 128 168 189 179 171 164 175 197 210 192 176 173 167 162 171 168 160 169 170 163 159 165 168 164 162 157 153 153 152 157 159 151 151 156 152 151 152 151 146 145 146 143 142 142 143 148 151 150 147 146 144 143 142 138 134 131 131 129 130 126 121 131 137 138 140 140 142 144 143 145 146 142 134 125 119 113 122 124 142 150 143 143 138
210 222 233 215 205 191 172 191 156 134 151 173 167 165 110 187 194 175 171 170 165 170 195 220 203 184 169 167 173 165 162 172 173 165 161 168 169 163 163 158 154 154 154 157 155 151 152 155 154 152 153 152 147 145 145 143 142 141 144 148 150 150 147 145 142 141 142 140 138 136 133 132 130 127 118 120 126 130 131 136 141 137 141 146 140 133 134 140 137 131 123 105 130 155 150 137 135
205 207 233 236 198 193 197 168 144 140 149 174 182 161 134 167 175 163 171 162 145 157 173 182 261 229 180 170 174 168 166 173 176 165 163 170 167 162 163 160 156 156 156 156 156 154 153 154 157 154 153 152 148 146 146 145 144 144 146 148 151 149 144 143 143 144 142 138 140 140 136 134 135 131 118 111 119 125 127 133 134 131 139 141 132 132 138 141 138 132 123 102 105 118 120 129 132
215 199 214 239 203 191 181 141 162 175 154 164 187 155 133 147 151 156 172 154 146 169 172 171 231 245 202 176 175 170 169 174 176 168 165 169 167 161 163 162 158 158 157 154 157 154 150 154 155 151 152 153 150 149 148 147 147 151 150 148 153 148 144 146 144 145 142 139 141 141 140 139 139 137 128 120 122 122 123 130 132 131 139 140 135 137 140 140 134 131 129 112 95 82 88 107 110
240 221 211 222 210 206 184 161 178 181 159 165 183 157 138 141 146 166 175 160 159 161 162 180 218 243 225 191 181 170 172 176 174 172 169 168 167 162 163 164 160 160 157 153 156 155 152 156 152 152 156 154 152 153 152 152 154 158 153 151 157 151 147 149 145 142 140 140 144 142 143 144 143 143 138 133 133 130 128 134 135 133 135 136 134 133 136 138 133 136 140 122 104 102 102 99 93
258 253 238 230 216 209 183 171 172 162 155 174 178 162 148 141 151 178 174 161 170 163 163 188 215 237 237 230 203 174 171 176 173 174 171 168 168 163 164 166 163 162 157 154 157 157 158 159 154 156 161 156 157 160 158 160 161 163 159 158 161 154 151 151 147 144 141 142 148 148 145 147 147 144 145 143 136 130 130 135 136 136 137 130 120 122 132 136 134 140 139 125 119 128 124 107 101
260 265 267 263 237 189 152 157 171 163 152 163 171 167 158 145 151 174 173 166 177 172 173 190 203 225 242 257 234 182 171 174 173 175 171 169 169 164 164 169 169 164 157 157 161 161 163 162 157 161 163 161 164 165 163 165 165 166 164 164 162 155 154 156 151 149 147 147 151 152 148 149 149 147 152 151 141 132 132 138 137 135 136 131 124 125 131 135 136 141 138 133 130 115 86 105 112
255 264 266 274 260 195 151 149 169 178 154 156 175 174 160 150 152 164 172 177 182 176 178 184 186 199 229 256 252 203 180 176 173 177 173 172 171 164 165 172 172 166 162 163 165 164 165 163 161 164 165 166 168 168 168 167 167 169 167 165 161 156 157 156 150 149 149 151 154 155 156 154 150 151 157 153 147 143 137 136 137 136 136 138 138 137 137 136 135 139 140 140 138 123 105 113 120
250 258 250 267 261 206 162 161 170 176 168 168 181 188 161 153 156 161 170 179 180 172 160 144 164 180 183 214 246 223 185 178 177 178 175 173 172 166 167 173 173 168 167 168 168 168 167 164 165 168 167 168 170 170 170 168 168 169 164 162 156 152 156 151 146 149 151 154 157 158 162 159 151 154 158 153 149 146 141 139 138 140 140 138 135 133 137 137 136 136 129 124 116 113 117 118 98
236 244 240 245 236 197 186 183 176 178 188 177 172 183 164 157 160 159 162 167 173 169 147 135 180 190 183 197 240 238 198 184 182 180 178 175 173 169 168 173 174 171 170 171 172 173 170 165 168 171 170 170 172 171 170 169 169 165 158 159 157 153 155 153 150 152 155 160 162 162 165 160 157 160 159 156 151 150 154 145 139 143 142 138 134 135 141 136 133 127 118 119 100 72 75 97 88
227 232 238 243 219 185 196 202 190 197 203 183 173 174 164 168 165 156 158 161 167 172 168 180 194 188 193 194 210 221 206 192 188 183 180 177 174 170 168 173 177 173 174 175 175 175 172 167 169 173 173 172 173 172 171 169 169 167 160 159 160 158 159 163 162 160 163 167 166 164 165 165 166 162 159 162 158 155 155 140 137 142 142 143 138 133 133 126 127 125 118 115 107 82 63 86 79
227 216 226 248 253 210 201 201 200 224 225 190 192 204 154 164 168 163 166 159 156 168 175 180 189 189 197 199 198 203 197 192 198 193 184 178 176 172 170 176 180 177 175 176 176 177 172 167 170 173 175 176 174 174 173 170 170 173 168 161 162 164 164 171 173 166 166 170 168 162 162 170 170 160 159 164 158 154 153 146 143 141 140 142 130 123 129 128 121 120 125 117 109 105 99 80 47
236 221 211 233 250 244 236 228 211 239 254 198 196 210 169 155 179 178 167 150 149 167 177 175 186 195 197 201 199 199 196 188 192 203 192 180 177 176 175 179 183 179 176 177 178 177 171 168 172 173 175 178 177 176 175 173 173 175 174 167 166 171 170 169 172 167 164 165 167 164 161 169 170 163 163 161 153 154 157 153 147 144 144 139 132 127 131 137 123 113 122 122 113 124 124 88 43
234 240 226 225 232 237 253 244 213 232 254 216 194 206 188 141 170 177 156 144 155 169 177 179 186 193 198 200 194 214 234 203 189 198 194 182 179 179 178 182 185 181 176 178 179 175 170 168 173 174 175 179 179 177 178 177 176 176 177 175 172 177 172 166 168 168 165 162 163 163 162 166 170 167 167 162 156 158 160 156 150 149 139 132 146 136 119 134 129 116 126 120 110 127 127 115 89
229 245 257 243 216 209 234 240 219 234 254 244 207 203 188 130 153 168 149 147 163 166 171 183 184 185 193 189 174 197 235 224 199 198 196 185 182 181 180 183 188 183 176 179 179 176 172 169 173 176 176 179 180 179 180 180 179 178 179 178 176 179 173 169 171 167 164 161 158 162 163 166 170 167 166 166 162 162 166 160 153 153 145 143 160 140 127 141 132 124 138 133 135 154 145 144 168
227 236 264 261 209 192 217 223 225 238 242 245 231 214 197 168 162 169 153 148 163 162 164 185 188 188 190 182 180 192 204 209 201 203 205 192 183 181 182 186 190 184 176 179 180 176 174 172 174 177 178 180 181 180 181 182 181 182 184 182 178 179 175 172 174 167 165 165 162 166 167 166 171 171 168 170 169 167 169 163 156 159 159 158 156 139 137 141 134 145 157 145 153 174 161 160 196
229 224 222 236 212 204 222 219 233 240 233 238 239 232 227 210 155 149 139 134 146 153 163 181 191 192 188 184 187 189 192 198 195 199 210 202 190 183 185 191 195 188 177 178 183 178 175 175 175 177 180 181 182 181 182 183 183 184 187 186 182 181 178 176 176 173 172 173 172 172 172 171 175 178 173 172 175 173 170 168 167 169 167 160 152 149 150 142 143 158 160 158 164 173 178 176 197
229 230 209 209 203 200 221 220 223 225 232 240 234 229 229 69 95 123 127 127 132 137 156 171 179 182 185 189 186 182 189 191 179 199 217 209 198 188 188 193 197 197 182 177 183 181 176 177 177 179 181 182 183 182 182 185 186 187 188 188 186 183 182 181 180 180 179 181 182 178 177 179 180 180 178 175 179 179 173 172 174 174 171 162 159 167 164 154 158 153 146 165 170 168 190 200 208
215 221 209 208 200 196 210 218 219 218 228 238 233 221 177 107 103 120 123 124 131 138 149 159 169 171 175 189 184 180 190 184 167 190 217 211 201 191 191 191 195 203 193 182 187 183 176 177 179 181 183 183 183 183 184 186 187 188 189 189 189 187 185 184 183 185 185 186 189 185 183 187 186 184 181 179 181 178 172 174 178 175 172 169 171 173 165 160 168 157 151 174 179 173 185 192 210
204 222 222 211 209 217 214 207 217 222 221 225 228 219 152 133 133 131 132 129 131 142 147 146 146 143 149 181 199 192 192 185 174 185 200 205 201 195 194 194 194 202 200 191 191 184 176 176 178 182 184 184 185 185 185 187 188 189 190 190 190 190 189 187 186 188 188 188 191 193 191 190 189 189 186 182 182 176 171 174 178 178 177 179 182 177 168 173 180 172 168 175 180 180 183 194 213
194 219 237 218 208 227 230 216 223 226 221 215 213 163 97 124 131 127 131 129 129 132 127 122 118 116 130 168 199 193 181 174 178 187 193 194 194 196 200 199 196 202 205 198 196 190 179 176 178 183 186 186 186 187 188 189 189 189 190 191 191 192 191 191 191 191 191 192 193 196 199 194 189 191 189 183 180 177 174 175 176 181 182 179 183 182 178 183 184 184 188 182 179 180 183 202 215
198 208 229 229 219 234 244 230 229 229 225 212 159 103 104 132 135 130 122 116 119 118 105 106 114 121 125 131 153 151 147 148 148 161 185 194 195 198 203 202 198 202 208 206 201 193 181 177 179 182 187 189 188 188 190 191 191 190 190 191 192 193 194 194 194 194 195 196 196 197 201 199 193 192 190 186 184 179 177 177 175 181 185 180 183 185 183 187 186 187 199 197 188 190 192 198 207
248 212 206 219 235 248 264 249 232 222 224 215 143 129 144 149 139 141 126 111 110 110 102 97 106 119 126 129 120 97 98 115 123 152 218 251 214 201 201 201 198 200 209 209 193 181 179 181 182 183 187 190 190 190 192 191 192 192 192 192 193 194 196 197 197 196 196 197 198 198 199 199 198 197 192 188 186 183 180 181 180 182 184 183 186 187 185 192 193 186 195 204 198 200 207 203 208
244 243 195 217 235 236 242 251 245 222 224 220 158 144 156 155 145 148 135 120 110 106 102 96 94 103 112 115 107 88 76 74 74 168 219 252 228 203 194 195 196 193 194 191 171 172 180 186 189 190 192 193 193 193 192 192 193 194 194 194 194 196 197 198 199 197 197 198 197 199 200 199 198 199 198 190 185 185 184 185 184 185 186 185 189 191 188 194 202 194 195 204 202 203 211 211 213
244 269 247 242 246 236 226 221 242 243 234 219 170 143 138 136 142 139 125 118 114 106 100 97 92 83 77 79 90 91 78 55 43 68 206 225 225 215 206 201 191 168 171 194 189 174 175 192 212 209 198 197 199 198 195 192 193 195 197 197 197 198 199 200 201 198 198 200 198 198 200 200 197 197 198 193 188 188 188 188 188 187 189 188 190 193 190 192 201 203 200 204 206 208 212 214 212
228 242 231 226 225 242 238 214 219 244 247 227 186 129 99 111 129 129 119 115 111 107 103 99 95 86 70 56 64 79 88 88 59 30 13 238 225 218 208 172 130 120 161 202 201 185 181 196 216 226 221 212 206 203 201 196 196 197 197 197 199 201 201 202 204 201 200 202 201 199 200 200 198 196 196 195 195 195 192 192 193 192 192 192 191 193 194 194 196 200 204 207 207 207 208 213 211
220 219 220 217 212 225 234 218 218 230 254 255 180 128 111 114 128 129 120 112 103 103 106 104 100 93 85 69 57 57 69 82 74 54 45 29 257 215 193 123 121 138 169 183 181 191 194 196 207 224 246 239 224 218 211 200 202 207 203 200 200 202 204 205 206 205 204 204 203 202 200 199 199 198 198 197 196 198 198 195 197 197 196 195 195 194 196 198 198 199 202 204 205 206 206 208 210
Height
766 767 767 769 767 768 770 771 791 792 792 804 797 796 790 777 778 778 776 773 772 766 753 751 747 747 756 763 765 764 764 767 771 781 798 794 788 796 797 800 802 804 807 808 810 811 812 813 814 815 816 817 817 818 819 819 820 821 822 823 823 823 823 824 824 825 825 825 826 826 826 826 826 826 826 826 826 827 827 827 828 828 829 830 830 830 831 831 832 832 833 834 835 837 837 837 837
766 767 766 768 765 770 774 773 795 799 799 809 797 793 786 775 778 777 775 773 771 763 752 749 746 747 750 754 756 762 770 765 762 770 782 785 790 796 797 801 802 804 806 808 810 811 813 813 815 816 816 817 818 819 820 820 822 823 824 824 824 824 824 825 825 826 826 826 827 827 827 827 827 827 827 827 827 828 828 829 829 829 830 831 831 831 832 832 833 834 834 834 835 837 838 838 838
767 767 765 767 767 768 774 781 797 802 806 810 799 789 780 778 777 773 770 766 762 755 752 750 751 752 753 761 763 770 779 770 764 771 780 786 791 794 798 800 802 804 806 808 810 811 813 814 815 816 816 818 818 820 821 822 823 824 824 824 825 825 825 826 826 827 827 827 828 828 828 828 828 828 828 828 829 829 829 830 830 830 831 832 833 833 833 834 834 835 835 835 836 837 839 839 839
766 766 764 764 771 774 780 789 795 799 803 802 800 790 779 777 772 770 765 759 754 751 753 755 759 754 755 771 769 772 780 774 771 774 781 787 789 793 797 799 802 805 806 809 810 811 813 814 815 816 817 818 820 821 822 824 824 824 824 825 825 825 826 826 827 828 828 828 829 829 829 829 829 829 829 829 830 830 831 831 831 831 832 833 834 834 835 835 835 836 836 836 836 838 839 840 840
765 765 763 763 776 783 786 792 792 795 794 792 797 789 777 772 768 769 761 755 753 753 756 757 764 755 753 764 765 776 780 776 776 775 781 787 790 794 797 800 802 804 807 809 810 812 813 814 816 817 819 819 821 822 824 825 825 824 824 825 826 826 827 827 828 828 829 829 829 830 830 830 830 831 831 831 831 831 832 832 832 833 833 835 836 836 836 836 836 836 836 837 838 839 840 841 842
764 763 761 762 770 777 788 794 792 790 784 781 789 783 773 768 765 766 760 756 754 754 755 755 762 760 762 761 761 771 772 774 777 777 782 787 792 794 797 800 802 805 807 809 811 812 814 815 816 818 819 820 822 823 825 825 824 824 825 826 827 827 827 828 829 830 830 830 831 831 831 831 832 832 832 832 833 833 833 833 834 834 834 836 837 838 837 838 837 837 838 838 839 840 841 842 843
762 765 765 769 772 775 791 796 789 788 783 777 778 776 769 764 762 763 761 761 762 759 757 756 755 763 773 766 765 768 767 771 773 778 783 787 793 795 798 800 803 805 807 810 812 813 815 816 817 819 820 821 823 824 824 824 824 825 826 827 827 827 828 829 830 831 831 831 832 832 833 833 833 833 834 834 834 834 835 835 835 835 836 837 838 839 839 839 838 838 839 839 841 841 842 843 844
760 766 770 779 786 785 793 795 786 783 782 773 768 767 764 763 760 762 763 765 770 766 762 758 753 769 777 768 775 772 768 774 774 780 784 787 793 795 798 800 803 805 808 811 812 814 816 817 818 820 821 822 823 823 824 824 825 826 827 827 828 828 829 830 831 832 832 833 833 833 834 834 835 835 835 835 835 836 836 836 836 837 837 838 839 840 840 840 838 838 839 840 842 843 843 843 844
758 764 772 780 790 792 792 794 787 780 780 772 766 763 762 761 759 762 765 767 769 767 766 759 756 773 778 773 779 773 771 777 777 782 785 790 793 795 799 800 803 805 808 811 813 815 816 818 819 820 821 822 822 823 824 825 826 826 827 828 828 830 830 832 832 833 833 834 834 834 835 835 836 836 836 837 837 837 838 838 838 839 839 839 840 840 841 841 840 840 841 842 843 844 844 844 845
760 764 774 781 789 795 793 790 785 781 779 772 766 763 762 760 760 763 767 772 769 767 765 756 759 772 777 780 781 774 775 779 779 785 788 791 793 796 799 800 804 805 808 811 813 815 816 819 819 821 821 822 823 824 825 826 827 827 828 829 830 831 832 833 833 834 834 835 835 836 836 837 837 837 838 838 838 839 839 840 840 840 840 841 841 841 842 842 842 842 842 843 844 845 846 846 846
769 768 771 785 794 796 794 792 785 782 779 772 768 764 763 761 763 765 769 776 771 770 765 759 769 771 775 783 782 776 777 780 782 787 790 792 794 796 798 801 804 805 808 810 813 815 816 819 820 821 821 822 824 824 826 826 827 828 829 830 832 833 833 834 834 835 835 836 836 837 837 838 839 839 840 840 840 840 840 841 841 841 841 842 842 842 843 843 843 843 843 844 845 846 847 847 847
776 779 778 791 795 789 788 792 787 784 782 777 773 764 760 761 766 769 773 777 771 773 767 762 769 768 780 788 781 777 777 781 783 787 791 793 795 797 800 802 805 807 809 810 813 815 817 818 820 821 822 823 824 825 826 827 828 829 830 831 833 834 834 835 835 836 836 837 837 837 838 839 840 840 841 841 841 841 842 842 842 842 842 843 843 844 844 844 845 844 845 845 846 847 848 848 849
776 783 785 791 789 786 785 789 787 785 786 781 776 766 759 765 769 769 772 774 771 776 771 761 762 765 782 787 780 778 778 781 783 786 790 792 796 798 801 803 806 808 810 811 813 815 817 819 820 821 822 823 824 826 827 828 829 830 831 832 834 835 835 836 836 837 837 837 838 838 839 840 841 841 842 842 842 842 843 844 844 844 844 845 845 845 845 846 846 846 846 846 847 848 849 850 850
771 774 779 786 783 785 784 785 786 787 790 781 775 768 763 769 769 768 772 777 777 775 766 756 757 770 782 785 786 782 779 781 783 787 788 792 796 799 802 804 807 809 811 812 813 816 817 819 820 821 823 824 825 826 828 829 830 831 832 833 835 835 836 837 836 837 837 838 838 839 840 841 842 842 843 843 843 844 844 845 845 845 845 846 846 846 847 847 847 847 848 848 848 849 850 851 852
763 765 773 785 782 783 783 782 783 786 790 780 774 771 770 770 766 771 774 778 779 765 759 756 756 773 783 784 788 781 778 782 783 786 789 792 796 799 802 804 807 809 812 813 814 816 817 820 820 822 823 824 826 827 828 830 831 832 833 835 835 836 837 837 838 838 838 839 839 840 841 842 843 843 844 844 844 845 845 846 846 846 847 847 847 848 848 848 849 849 849 849 850 850 851 852 853
752 759 775 788 786 787 785 780 782 789 788 778 774 773 776 775 766 775 774 772 774 762 762 763 758 768 775 777 779 774 776 781 783 787 790 793 796 799 802 804 807 809 812 813 815 816 818 820 821 823 824 825 827 828 829 830 832 833 834 835 836 837 837 838 838 839 839 840 840 841 842 843 844 845 845 845 845 846 847 847 847 847 848 848 848 848 849 850 850 850 851 851 852 852 853 854 854
748 762 779 788 786 787 784 779 782 788 784 777 778 777 780 780 771 773 769 767 773 770 769 766 758 761 766 770 771 772 777 781 784 788 790 794 797 799 802 804 807 809 812 814 816 817 818 820 821 823 825 827 828 829 830 831 832 833 835 836 837 837 838 839 839 840 840 840 841 842 844 844 845 846 846 847 847 848 848 849 849 849 849 849 849 849 849 850 851 852 852 853 854 854 855 856 856
756 770 779 784 786 786 780 776 776 777 778 779 780 778 778 781 777 771 771 775 776 775 774 766 761 760 762 768 771 774 778 781 784 788 791 794 797 799 801 804 807 809 811 814 816 818 819 820 821 824 825 827 828 829 830 831 833 834 835 836 837 838 839 840 840 841 841 841 842 843 844 845 846 847 847 848 849 849 850 850 850 850 850 850 850 850 851 852 853 853 854 855 855 856 857 857 858
761 774 785 785 781 780 771 768 769 769 774 777 778 776 775 779 777 772 778 784 780 782 780 772 768 766 766 769 773 776 778 782 785 788 791 793 796 799 801 804 807 809 811 814 816 818 819 820 822 824 825 826 828 830 831 832 833 834 835 836 837 839 839 840 841 841 842 843 844 844 845 846 847 847 848 849 850 850 851 851 852 852 852 852 852 853 853 853 854 855 855 856 857 857 858 859 859
762 771 788 781 768 773 766 762 765 765 768 774 776 774 776 778 774 773 780 785 786 788 783 777 776 773 772 771 773 777 778 782 786 789 792 793 796 798 801 803 806 809 811 813 815 818 819 820 822 824 825 826 828 829 831 832 833 834 835 836 837 838 840 840 841 842 843 843 844 845 846 847 848 848 849 850 850 851 852 853 853 852 853 853 854 854 855 855 855 856 857 857 858 858 859 860 860
764 766 778 769 760 771 767 760 761 761 765 771 774 776 779 777 772 776 780 787 792 789 781 777 775 773 772 772 773 777 779 782 786 789 791 793 796 799 801 803 805 808 810 813 815 817 818 820 822 824 825 826 828 829 830 832 832 834 834 835 836 838 839 840 841 842 843 844 845 846 847 847 848 848 849 850 850 851 852 853 853 854 854 855 855 855 856 857 857 857 858 858 858 858 860 861 861
763 762 765 760 757 768 765 758 758 760 764 769 773 777 778 774 774 778 780 789 792 785 781 776 769 768 770 772 774 777 780 783 786 789 791 793 795 798 802 803 806 808 810 813 815 817 818 820 822 823 825 826 828 829 829 831 831 833 833 834 836 837 839 840 842 843 843 845 846 847 848 848 848 849 850 850 850 851 852 853 854 855 856 856 856 856 857 858 858 858 859 859 859 859 860 861 862
767 766 759 755 755 760 759 757 758 759 764 771 773 774 772 775 780 778 778 784 781 774 775 772 766 765 768 771 774 778 781 783 785 788 790 792 794 797 801 804 806 808 810 812 814 817 817 819 822 823 824 826 828 829 830 830 831 832 833 834 836 838 839 841 843 844 844 844 846 848 848 849 849 850 851 851 851 852 853 854 855 855 856 857 856 857 858 858 858 859 860 860 860 860 861 862 862
770 773 759 751 750 748 750 754 756 756 764 768 769 772 775 781 783 780 779 778 772 768 768 766 763 765 768 772 775 778 781 783 785 788 790 791 794 797 800 803 806 808 810 812 814 816 817 819 821 822 824 826 828 829 830 830 832 833 833 834 835 837 839 841 843 845 845 844 846 848 849 850 850 851 851 851 852 853 854 854 855 855 856 857 857 858 858 858 859 859 860 860 860 861 862 863 863
760 765 755 748 748 742 742 750 753 756 762 764 768 776 778 780 781 782 781 775 770 767 766 765 764 767 771 774 776 779 781 783 785 787 789 791 793 797 800 803 806 808 810 811 814 815 817 819 820 822 824 825 827 829 829 831 833 834 834 835 836 837 839 842 844 845 846 846 848 849 850 851 851 851 851 850 851 852 853 854 855 855 857 858 858 858 858 858 859 859 860 860 861 862 862 863 863
750 750 749 750 752 742 737 746 754 757 759 762 771 781 781 777 779 784 780 773 770 767 770 769 767 770 772 775 776 778 781 782 785 787 788 790 792 795 799 803 805 808 810 811 813 814 816 818 820 822 824 825 827 828 829 830 831 832 834 836 837 837 839 842 844 846 847 847 847 848 849 852 853 852 851 851 851 851 852 853 854 855 857 858 858 858 858 858 859 859 860 861 862 862 863 863 863
740 744 746 748 749 740 733 744 755 756 757 763 774 783 782 777 780 788 780 770 770 770 772 770 768 772 772 773 775 777 781 782 784 785 787 789 791 794 797 801 805 807 809 811 812 814 816 818 820 822 824 825 827 829 830 832 832 832 834 835 836 837 839 842 844 846 848 849 848 849 850 852 854 853 851 851 850 853 854 854 856 857 858 858 858 858 859 859 859 860 860 861 862 862 863 864 864
736 742 748 747 743 740 732 742 754 755 761 764 770 781 781 779 783 785 777 769 771 774 773 769 770 773 771 773 775 777 779 781 783 783 786 788 789 793 796 799 803 806 808 810 811 814 816 818 820 822 824 825 827 829 831 833 834 835 836 836 837 838 840 844 846 847 850 851 852 853 853 853 855 854 852 850 849 853 854 855 856 858 860 860 859 859 859 860 860 860 860 861 862 862 863 864 864
735 738 753 752 743 744 736 740 751 754 766 763 765 786 789 785 785 779 773 772 773 774 773 770 771 773 772 773 776 778 778 779 782 783 786 788 790 792 795 799 801 805 807 809 811 813 815 817 819 821 823 825 827 829 831 833 834 836 837 838 839 840 842 845 847 848 850 851 853 854 853 853 855 856 856 854 852 852 853 854 856 856 858 858 859 859 860 861 861 861 861 862 863 864 864 864 865
738 738 752 756 755 755 739 742 752 754 765 758 765 797 800 787 782 776 773 774 776 777 774 772 772 773 773 774 777 779 777 778 780 783 786 788 791 793 795 798 800 804 806 809 811 812 815 817 819 821 823 825 826 829 830 832 834 836 837 838 840 841 842 844 845 847 848 849 851 851 852 852 854 856 858 857 856 857 856 856 858 857 857 857 857 859 860 861 861 862 862 863 864 864 865 866 865
742 745 750 756 768 763 739 742 755 762 767 755 766 799 800 789 785 778 774 775 779 781 777 773 773 773 774 775 778 779 777 779 781 782 787 789 792 793 795 797 799 803 805 808 810 811 815 816 818 821 822 825 826 828 830 832 834 835 837 838 839 841 842 843 844 846 847 848 849 849 851 851 852 854 856 858 859 860 860 859 860 861 860 859 860 860 861 861 861 862 863 864 864 864 865 866 865
744 756 761 756 764 763 750 750 751 763 768 756 771 799 800 793 786 777 774 775 779 783 781 777 775 773 775 777 778 779 778 779 781 783 787 790 791 793 795 797 799 802 805 808 809 811 815 816 818 820 822 824 825 828 829 831 833 835 837 838 839 840 841 842 843 845 846 847 848 849 850 850 851 852 854 856 858 859 860 860 861 862 862 862 862 862 862 862 862 863 863 864 864 864 865 865 865
746 757 764 755 759 764 761 755 743 752 765 763 776 797 802 795 785 778 774 777 780 784 785 782 781 777 774 778 777 778 781 780 781 782 786 789 791 793 795 797 799 802 805 807 809 811 814 816 818 820 822 824 825 827 829 830 832 834 836 838 839 840 841 842 842 844 845 846 847 848 849 850 851 852 852 854 856 857 859 860 860 861 861 861 862 862 862 863 863 863 863 864 864 864 865 865 865
751 752 757 750 752 761 763 757 745 747 763 771 775 787 796 791 786 784 778 778 784 787 788 786 789 785 776 777 778 778 781 782 781 781 785 788 790 793 795 797 800 802 805 807 809 811 813 816 818 819 821 823 825 827 828 830 832 833 835 837 838 839 840 841 842 843 844 846 847 847 848 849 851 851 852 853 855 857 858 859 859 860 861 861 862 862 863 863 863 863 863 864 864 864 864 864 864
750 750 753 749 745 753 761 765 758 751 762 773 774 780 789 787 785 785 780 780 787 790 790 788 791 790 780 777 778 779 781 782 781 781 784 787 789 792 795 797 800 802 804 807 809 811 813 815 817 819 821 823 825 826 828 830 831 833 834 836 837 838 839 840 842 843 844 845 846 847 848 849 850 851 852 853 854 856 857 858 859 860 860 860 861 862 862 863 863 863 864 864 864 864 864 864 864
739 736 739 744 743 743 746 754 754 750 763 773 774 779 784 787 786 783 781 782 788 791 790 790 792 790 784 779 777 778 781 781 779 780 783 786 789 792 795 797 799 801 804 806 809 811 813 815 816 819 821 822 824 826 827 829 830 832 833 835 836 837 838 840 841 842 843 844 845 846 848 848 850 851 852 853 854 855 856 858 859 859 860 860 860 861 862 862 863 863 863 864 864 864 864 864 864
732 729 729 731 736 738 736 740 739 740 764 774 769 775 778 784 788 782 780 784 789 792 791 792 793 791 786 783 779 777 780 779 777 780 782 785 788 791 795 797 799 801 803 806 808 811 812 814 816 818 820 822 823 825 826 828 829 830 832 833 835 836 838 839 840 841 842 844 845 846 847 848 849 851 852 853 854 855 856 858 858 859 860 860 860 861 862 862 863 863 863 863 864 863 864 864 864
736 734 731 730 730 732 731 737 735 732 758 772 765 773 776 777 785 781 778 785 788 788 791 792 791 792 789 786 783 779 777 777 776 779 781 784 787 790 794 797 799 801 803 806 808 810 812 813 815 817 819 821 822 824 825 827 828 829 831 832 834 835 837 838 839 840 842 843 844 845 846 848 849 850 851 852 854 855 856 857 858 859 860 860 861 861 862 862 862 863 863 863 863 863 863 863 864
740 736 737 740 731 728 732 738 736 732 753 770 767 772 777 774 777 778 778 781 782 782 785 788 790 795 796 793 791 784 778 777 777 778 780 782 786 789 794 796 798 800 803 806 808 810 811 813 815 816 818 820 822 823 824 826 827 828 830 831 833 835 836 838 839 839 841 843 844 845 846 847 848 849 851 852 853 854 855 857 857 858 859 859 860 861 861 862 862 863 863 863 863 863 863 863 863
741 739 743 746 731 732 745 743 737 734 745 761 765 768 771 774 777 777 777 777 777 779 783 786 787 792 794 794 792 784 779 779 779 778 778 781 784 788 792 795 797 800 802 805 807 809 810 812 814 815 817 819 820 822 824 825 827 828 830 831 832 834 836 837 838 839 841 842 843 844 845 846 848 849 850 851 853 854 855 855 856 857 858 859 859 860 861 861 862 862 862 862 862 862 863 863 863
742 738 741 743 731 734 745 739 732 734 741 747 762 777 774 774 782 781 778 778 779 780 785 788 787 786 789 791 792 785 779 778 778 777 777 778 782 786 790 794 796 798 801 804 806 808 809 811 813 815 816 818 820 821 823 824 826 828 829 830 832 834 835 836 837 839 840 841 843 844 845 846 847 848 849 851 852 853 854 854 856 857 858 859 859 859 860 861 861 862 862 862 862 862 862 863 863
744 738 733 731 729 733 738 737 737 750 756 743 755 792 793 774 777 781 778 781 783 783 786 790 788 786 788 791 793 787 778 775 775 775 776 777 780 784 789 792 794 797 800 802 804 806 808 810 813 815 816 818 819 820 822 824 825 827 829 830 831 832 834 835 836 837 839 840 842 843 844 845 846 847 849 850 851 852 853 854 855 856 857 858 858 859 859 860 861 861 862 862 862 863 863 863 864
749 735 726 725 725 730 734 737 746 760 761 738 736 777 798 785 778 775 772 779 786 785 786 788 787 787 786 786 787 783 777 776 775 773 773 775 779 783 787 790 792 795 798 800 803 805 807 809 812 814 816 817 819 820 822 823 825 827 828 829 830 832 833 834 835 837 838 839 840 842 843 844 845 846 848 849 850 851 852 853 854 855 856 857 858 858 859 859 861 861 862 862 862 863 863 863 864
749 727 720 728 727 730 734 737 748 751 745 736 730 747 781 798 787 767 762 777 788 787 785 785 783 783 782 780 779 779 777 775 776 776 773 773 778 781 784 788 790 792 796 798 801 803 805 808 810 813 815 817 818 820 821 823 824 826 828 829 830 831 832 834 835 836 837 838 839 841 842 843 844 846 847 848 849 850 851 852 853 854 855 857 857 858 858 859 860 861 861 862 862 863 863 863 864
741 720 717 723 724 729 731 736 746 743 743 753 742 735 766 795 781 760 763 778 789 789 785 782 780 779 778 778 779 781 781 776 774 775 772 772 776 779 783 786 788 790 794 797 799 802 804 806 809 811 813 816 817 819 821 822 824 825 827 828 830 831 832 833 834 835 836 837 838 840 841 842 844 845 846 847 848 849 850 851 852 854 855 856 857 857 857 858 859 860 860 861 862 863 863 864 864
729 718 719 716 717 725 731 740 744 744 757 766 748 735 764 796 783 764 773 784 786 786 782 779 776 775 777 778 781 785 786 780 774 771 770 771 775 778 782 785 787 788 791 795 797 800 803 805 808 810 812 814 816 818 820 822 823 825 826 827 829 830 831 833 834 835 836 837 838 839 840 841 843 844 845 846 847 848 849 850 851 853 854 854 855 856 857 858 858 859 860 861 862 862 863 864 864
721 723 728 723 722 726 734 739 742 759 774 765 745 732 751 789 787 767 771 776 775 779 782 779 775 773 775 776 779 782 783 779 774 772 771 772 775 778 781 783 785 787 790 793 796 798 801 804 806 809 811 813 815 817 819 821 823 824 826 827 828 830 831 832 833 834 835 837 838 839 839 841 842 843 844 845 846 847 848 849 851 852 853 853 855 856 857 858 858 858 859 860 861 862 863 863 864
723 728 734 741 743 742 748 749 753 779 785 759 741 730 738 772 780 765 763 762 761 770 775 776 776 774 772 772 774 776 777 775 775 777 776 775 776 778 781 784 784 785 788 791 794 797 800 803 805 808 809 812 813 815 818 820 822 823 825 826 827 829 830 831 833 834 835 836 837 838 839 840 841 842 843 844 845 846 847 848 850 851 852 853 854 855 856 857 857 858 859 860 861 862 862 863 864
730 733 739 757 767 771 781 779 772 781 777 751 736 733 747 770 771 763 762 759 759 763 765 768 771 772 771 768 769 770 771 773 776 781 780 777 776 777 780 783 784 785 787 790 793 795 798 802 804 806 808 810 812 814 816 818 820 822 824 825 827 828 829 830 832 833 834 835 836 837 838 839 840 841 842 843 844 845 846 847 848 849 850 852 853 854 855 856 857 857 859 860 860 861 862 863 863
738 740 746 763 774 790 802 789 777 776 765 746 730 734 762 781 772 763 762 759 758 759 760 763 763 766 769 767 766 767 768 770 775 781 781 778 776 776 779 782 784 785 787 789 792 793 797 800 803 806 807 809 811 813 815 817 818 821 822 824 826 827 828 829 831 832 833 835 835 836 838 838 839 840 841 842 843 844 845 846 848 848 849 851 852 853 854 854 856 857 858 860 860 861 862 863 863
737 733 737 751 760 777 786 778 778 776 761 747 735 741 767 782 774 761 756 757 756 756 756 757 761 763 765 766 766 767 768 769 773 779 781 779 777 777 779 781 783 786 787 789 791 792 795 799 802 805 806 808 810 812 814 816 817 819 821 823 825 826 827 828 830 831 832 833 835 836 837 837 838 839 840 841 842 843 844 845 847 848 849 850 851 852 853 854 855 857 858 859 860 860 861 862 863
735 728 735 745 743 749 756 755 756 755 756 750 742 753 763 763 762 751 748 756 758 757 755 757 766 766 764 769 769 768 770 771 772 775 776 775 776 778 780 781 784 786 787 788 790 792 794 797 800 803 806 807 809 811 813 815 816 818 820 822 823 825 826 827 828 830 831 832 833 834 836 837 837 838 839 840 841 842 844 845 846 847 848 849 850 851 852 853 855 856 857 858 859 860 860 861 862
736 737 743 735 723 729 746 750 739 741 760 752 744 767 770 762 768 758 751 760 761 761 761 762 769 769 768 771 771 771 772 772 773 774 774 774 775 778 780 782 784 785 787 788 790 792 794 796 799 802 805 806 808 810 812 814 816 817 818 820 822 824 825 826 827 828 830 831 832 833 835 836 836 838 838 839 841 841 843 844 845 846 847 848 849 850 852 853 854 855 856 857 858 858 859 860 861
738 744 737 726 724 729 741 756 752 754 767 751 746 774 779 777 787 773 764 772 770 768 768 766 768 769 772 774 772 774 773 773 775 774 775 775 774 777 779 780 783 784 787 788 789 791 794 797 798 800 803 805 807 809 810 813 814 816 818 819 821 822 823 825 826 827 828 829 831 832 833 835 836 837 838 839 840 841 842 843 844 845 846 847 848 849 851 851 852 854 855 855 856 857 858 859 860
728 729 721 729 750 751 747 758 765 767 769 754 752 769 770 777 786 775 774 781 776 775 774 772 772 770 772 774 772 775 775 775 777 776 776 775 773 775 776 777 781 783 787 788 789 792 794 796 798 799 802 803 806 808 809 812 814 815 818 819 820 822 823 824 825 826 827 828 829 830 832 833 834 835 837 838 839 840 841 842 843 844 845 846 847 848 850 850 851 852 853 854 855 856 857 858 859
723 724 724 730 743 747 744 748 753 762 767 756 759 775 774 772 775 772 777 779 776 779 778 776 778 775 775 776 775 777 778 777 777 776 776 774 773 775 776 778 782 784 786 786 788 792 794 798 800 800 801 802 805 807 808 810 813 814 817 818 820 821 822 824 824 825 826 826 827 828 830 831 832 834 835 836 838 839 840 841 842 843 844 845 846 847 848 849 850 851 852 853 854 855 856 856 857
737 742 744 739 736 735 735 735 734 747 762 753 764 798 795 771 767 769 772 774 774 778 779 780 782 782 782 780 778 780 780 779 777 774 774 773 773 776 778 780 783 786 787 785 787 791 794 798 800 800 803 805 805 807 808 810 811 814 816 818 820 821 822 824 824 824 825 825 826 826 828 829 831 832 834 835 837 837 839 840 840 842 842 843 845 845 847 848 849 850 851 852 853 853 854 855 856
735 740 740 737 736 737 746 750 735 734 748 744 760 805 804 769 762 765 763 768 772 774 778 781 782 785 787 786 784 783 782 781 780 777 775 774 774 775 778 780 784 787 789 788 788 789 790 793 795 798 804 808 809 809 809 808 811 814 815 817 819 820 822 823 823 824 824 824 825 825 826 827 829 830 832 833 835 836 837 838 839 840 841 842 843 844 845 846 847 849 849 850 851 851 853 853 854